sat.trackr.live / text

‹ back to catalog

STARLINK-33647

NORAD 63411 · 2025-065N

PAYLOAD ACTIVE UNKNOWN

§ Identity

Operator
Country
US
Launch date
2025-03-31
Launch site
AFETR
Launch vehicle
Mass (kg)
RCS (m²)

Purposes: comms

External: N2YO · Heavens-Above · Gunter

§ Orbital elements

Epoch: 2026-05-24T23:56:24.520128Z

Period
94.27 min
Inclination
42.9995°
Eccentricity
0.0001174
Mean motion
15.27601708 rev/d
Perigee alt
482.2 km
Apogee alt
483.8 km
Semi-major
6,861.1 km
B*
9.8247e-4
RAAN
43.6200°
Arg perigee
276.5865°
Mean anomaly
83.4853°
Rev number
6,442

§ Raw data

STARLINK-336471 63411U 25065N   26144.99750602  .00026890  00000+0  98247-3 0  99952 63411  42.9995  43.6200 0001174 276.5865  83.4853 15.27601708 64426

JSON: /api/v1/satellites/63411 · /tle

For live sub-satellite position, see the globe view (requires WebGL).

§ Visibility from observer

Set your observer location to see the next 7 days of passes ≥ 10°. The values pass through the URL so the page stays shareable.

No JS? Fill the form by hand. The geolocation button needs JavaScript.